Location: Arbon
(43.0005°N, 0.7472°E)
Time: 14:43:37
(UTC+00:00)

SR - Pass Details

Date: 07 December 2020
Orbit: 575 x 880 km, 66.7° (Epoch: 17 January)

Event Time Altitude Azimuth Distance (km) Brightness Sun altitude
Rises 18:01:01 0° 266° (W) 2,870 ? -17.4°
Reaches altitude 10° 18:04:22 10° 294° (WNW) 2,022 ? -18.0°
Maximum altitude 18:06:37 13° 324° (NW) 1,844 ? -18.4°
Drops below altitude 10° 18:08:56 10° 353° (N) 2,112 ? -18.8°
Enters shadow 18:10:34 - 8° (N) 2,499 ? -19.1°
